Overview Statistics Trail Chart Weather Telemetry Raw packets
 

This is the latest recevied weather packets stored in our database for station/object N5CSU. If no packets are shown the sender has not sent any weather packets the latest 10 day(s).

<< 20 21 22 23 24 25 26 >>
Time Temp. Humidity Pressure Rain* Wind** Luminosity Snow
1788481080 30.56° C 65% 1012 hPa 0 mm - 3 W/m² -
1788480775 30.56° C 65% 1011.9 hPa 0 mm - 3 W/m² -
1788480471 30.56° C 64% 1011.9 hPa 0 mm - 4 W/m² -
1788480166 30.56° C 66% 1011.7 hPa 0 mm - 4 W/m² -
1788479865 30.56° C 66% 1011.8 hPa 0 mm - 5 W/m² -
1788479562 30.56° C 66% 1011.7 hPa 0 mm - 5 W/m² -
1788479261 31.11° C 65% 1011.9 hPa 0 mm - 5 W/m² -
1788478957 31.11° C 65% 1011.8 hPa 0 mm - 6 W/m² -
1788478653 31.11° C 64% 1011.9 hPa 0 mm - 6 W/m² -
1788478349 31.11° C 64% 1011.6 hPa 0 mm - 7 W/m² -
1788478047 31.11° C 64% 1011.7 hPa 0 mm - 7 W/m² -
1788477744 31.67° C 65% 1011.5 hPa 0 mm - 7 W/m² -
1788477443 31.67° C 66% 1011.6 hPa 0 mm - 8 W/m² -
1788477138 31.67° C 65% 1011.5 hPa 0 mm - 8 W/m² -
1788476833 31.67° C 65% 1011.5 hPa 0 mm - 11 W/m² -
1788476528 32.22° C 63% 1011.7 hPa 0 mm - 8 W/m² -
1788476225 32.22° C 63% 1011.6 hPa 0 mm - 13 W/m² -
1788475921 32.22° C 60% 1011.4 hPa 0 mm - 10 W/m² -
1788475617 32.22° C 59% 1011.3 hPa 0 mm - 8 W/m² -
1788475312 32.78° C 59% 1011.5 hPa 0 mm - 11 W/m² -
1788475008 32.78° C 59% 1011.3 hPa 0 mm - 11 W/m² -
1788474706 32.78° C 60% 1011.3 hPa 0 mm - 12 W/m² -
1788474406 32.78° C 60% 1011.3 hPa 0 mm - 25 W/m² -
1788474104 32.78° C 59% 1011.4 hPa 0 mm - 105 W/m² -
1788473800 32.78° C 59% 1011.2 hPa 0 mm - 19 W/m² -

* Rain latest hour (hover to see other rain measurements)
** Current wind speed in m/s (hover to see current wind gust speed)